TimeEDT,TemperatureF,Dew PointF,Humidity,Sea Level PressureIn,VisibilityMPH,Wind Direction,Wind SpeedMPH,Gust SpeedMPH,PrecipitationIn,Events,Conditions,WindDirDegrees,DateUTC
12:53 AM,66.9,60.1,79,30.06,10.0,NNE,8.1,-,N/A,,Clear,20,2011-11-01 04:53:00
1:53 AM,66.0,60.1,81,30.06,10.0,NNE,8.1,-,N/A,,Partly Cloudy,20,2011-11-01 05:53:00
2:53 AM,66.2,57.2,73,30.06,10.0,NNE,9.2,-,N/A,,Clear,30,2011-11-01 06:53:00
3:53 AM,64.0,57.9,80,30.06,10.0,NE,9.2,-,N/A,,Clear,40,2011-11-01 07:53:00
4:53 AM,63.0,57.9,84,30.06,10.0,NNE,6.9,-,N/A,,Clear,20,2011-11-01 08:53:00
5:53 AM,63.0,59.0,87,30.07,10.0,NNE,9.2,-,N/A,,Clear,30,2011-11-01 09:53:00
6:53 AM,62.1,59.0,90,30.08,10.0,NNE,6.9,-,N/A,,Clear,30,2011-11-01 10:53:00
7:17 AM,62.6,59.0,88,30.09,10.0,NNE,9.2,-,N/A,,Partly Cloudy,30,2011-11-01 11:17:00
7:53 AM,62.1,57.9,86,30.09,10.0,NNE,10.4,-,N/A,,Clear,20,2011-11-01 11:53:00
8:53 AM,64.4,59.0,83,30.11,10.0,NE,12.7,-,N/A,,Clear,40,2011-11-01 12:53:00
9:53 AM,66.9,57.9,73,30.12,10.0,NE,12.7,20.7,N/A,,Clear,50,2011-11-01 13:53:00
10:53 AM,71.1,57.9,63,30.13,10.0,NE,16.1,-,N/A,,Clear,50,2011-11-01 14:53:00
11:53 AM,73.9,59.0,59,30.12,10.0,NE,17.3,-,N/A,,Clear,50,2011-11-01 15:53:00
12:53 PM,75.9,60.1,58,30.11,10.0,ENE,12.7,-,N/A,,Clear,60,2011-11-01 16:53:00
1:53 PM,78.1,60.1,54,30.09,10.0,ENE,13.8,19.6,N/A,,Clear,70,2011-11-01 17:53:00
2:53 PM,79.0,61.0,54,30.07,10.0,ENE,12.7,-,N/A,,Scattered Clouds,70,2011-11-01 18:53:00
3:53 PM,78.1,61.0,56,30.07,10.0,ENE,10.4,19.6,N/A,,Mostly Cloudy,70,2011-11-01 19:53:00
4:53 PM,78.1,61.0,56,30.07,10.0,ENE,12.7,-,N/A,,Mostly Cloudy,70,2011-11-01 20:53:00
5:53 PM,75.0,60.1,60,30.09,10.0,NE,11.5,-,N/A,,Partly Cloudy,50,2011-11-01 21:53:00
6:53 PM,73.0,59.0,61,30.09,10.0,ENE,10.4,17.3,N/A,,Clear,60,2011-11-01 22:53:00
7:53 PM,71.1,59.0,66,30.12,10.0,ENE,13.8,-,N/A,,Clear,60,2011-11-01 23:53:00
8:53 PM,69.1,57.0,65,30.14,10.0,ENE,12.7,-,N/A,,Clear,60,2011-11-02 00:53:00
9:53 PM,66.9,57.0,70,30.15,10.0,ENE,11.5,-,N/A,,Clear,60,2011-11-02 01:53:00
10:53 PM,64.9,57.0,75,30.15,10.0,NE,10.4,-,N/A,,Clear,40,2011-11-02 02:53:00
11:53 PM,64.4,55.4,73,30.14,10.0,NE,11.5,-,N/A,,Clear,50,2011-11-02 03:53:00